When you browse on this site, cookies collect data to enhance your experience and personalize the content and advertising you see.
Visit our Privacy Policy to learn more. By continuing to use the site, you agree to this use of cookies and data.
  • En España
  • Lista de países
  • Para 7 días
  • Temperatura del agua
  • Mapa Satelital
  • El tiempo en el mapa
  • Informadores
  • user-avatar
    Iniciar sesión

    Tiempo cada hora Maduraj

    Hoy, 20 Abril, Sábado

    Tiempo Temperatura Precipitaciones Viento Presión Humedad
    00:00 +33°C° 0 mm 3 mps 744 mmHg 60%
    01:00 +33°C° 0 mm 3 mps 744 mmHg 61%
    02:00 +32°C° 0 mm 2 mps 743 mmHg 63%
    03:00 +32°C° 0 mm 2 mps 743 mmHg 63%
    04:00 +31°C° 0 mm 2 mps 743 mmHg 64%
    05:00 +31°C° 0 mm 1 mps 743 mmHg 64%
    06:00 +32°C° 0 mm 1 mps 743 mmHg 61%
    07:00 +33°C° 0 mm 1 mps 744 mmHg 58%
    08:00 +33°C° 0 mm 1 mps 744 mmHg 55%
    09:00 +35°C° 0 mm 1 mps 744 mmHg 49%
    10:00 +36°C° 0 mm 1 mps 744 mmHg 44%
    11:00 +39°C° 0 mm 2 mps 744 mmHg 37%
    12:00 +39°C° 0.1 mm 2 mps 743 mmHg 36%
    13:00 +39°C° 0.1 mm 2 mps 742 mmHg 35%
    14:00 +40°C° 0.1 mm 3 mps 742 mmHg 33%
    15:00 +39°C° 0 mm 3 mps 742 mmHg 36%
    16:00 +40°C° 0 mm 4 mps 742 mmHg 38%
    17:00 +40°C° 0 mm 4 mps 741 mmHg 39%
    18:00 +37°C° 2.7 mm 4 mps 741 mmHg 46%
    19:00 +36°C° 2.7 mm 5 mps 742 mmHg 53%
    20:00 +34°C° 2.7 mm 5 mps 742 mmHg 60%
    21:00 +33°C° 4.6 mm 5 mps 743 mmHg 63%
    22:00 +33°C° 4.6 mm 4 mps 743 mmHg 66%
    23:00 +32°C° 4.6 mm 4 mps 743 mmHg 70%

    Mañana, 21 Abril, Domingo

    Tiempo Temperatura Precipitaciones Viento Presión Humedad
    00:00 +31°C° 1.9 mm 3 mps 743 mmHg 71%
    01:00 +30°C° 1.9 mm 2 mps 743 mmHg 73%
    02:00 +30°C° 1.9 mm 2 mps 743 mmHg 75%
    03:00 +30°C° 0.1 mm 2 mps 743 mmHg 74%
    04:00 +30°C° 0.1 mm 2 mps 743 mmHg 73%
    05:00 +30°C° 0.1 mm 2 mps 743 mmHg 73%
    06:00 +30°C° 0.1 mm 1 mps 743 mmHg 70%
    07:00 +30°C° 0.1 mm 1 mps 744 mmHg 67%
    08:00 +31°C° 0.1 mm 1 mps 744 mmHg 63%
    09:00 +31°C° 0 mm 1 mps 744 mmHg 61%
    10:00 +32°C° 0 mm 1 mps 744 mmHg 58%
    11:00 +30°C° 0 mm 0 mps 744 mmHg 56%
    12:00 +30°C° 0 mm 0 mps 743 mmHg 52%
    13:00 +33°C° 0 mm 1 mps 743 mmHg 49%
    14:00 +33°C° 0 mm 1 mps 742 mmHg 46%
    15:00 +33°C° 0 mm 1 mps 742 mmHg 45%
    16:00 +33°C° 0 mm 1 mps 742 mmHg 45%
    17:00 +34°C° 0 mm 1 mps 741 mmHg 44%
    18:00 +33°C° 0 mm 1 mps 742 mmHg 47%
    19:00 +33°C° 0 mm 1 mps 742 mmHg 49%
    20:00 +30°C° 0 mm 0 mps 743 mmHg 51%
    21:00 +32°C° 0 mm 1 mps 743 mmHg 53%
    22:00 +32°C° 0 mm 1 mps 743 mmHg 55%
    23:00 +31°C° 0 mm 2 mps 743 mmHg 57%

    Pasado mañana, 22 Abril, Lunes

    Tiempo Temperatura Precipitaciones Viento Presión Humedad
    00:00 +31°C° 0 mm 1 mps 743 mmHg 60%
    01:00 +31°C° 0 mm 1 mps 742 mmHg 63%
    02:00 +30°C° 0 mm 1 mps 742 mmHg 66%
    03:00 +30°C° 0 mm 1 mps 742 mmHg 66%
    04:00 +30°C° 0 mm 1 mps 742 mmHg 65%
    05:00 +30°C° 0 mm 1 mps 742 mmHg 65%
    06:00 +31°C° 0 mm 1 mps 742 mmHg 61%
    07:00 +29°C° 0 mm 0 mps 743 mmHg 57%
    08:00 +30°C° 0 mm 0 mps 744 mmHg 54%
    09:00 +32°C° 0 mm 0 mps 744 mmHg 48%
    10:00 +35°C° 0 mm 1 mps 743 mmHg 43%
    11:00 +37°C° 0 mm 1 mps 743 mmHg 38%
    12:00 +39°C° 0 mm 1 mps 743 mmHg 35%
    13:00 +40°C° 0 mm 2 mps 742 mmHg 32%
    14:00 +41°C° 0 mm 2 mps 741 mmHg 28%
    15:00 +42°C° 0 mm 3 mps 741 mmHg 29%
    16:00 +42°C° 0 mm 3 mps 741 mmHg 29%
    17:00 +40°C° 0 mm 3 mps 741 mmHg 29%
    18:00 +40°C° 0 mm 4 mps 742 mmHg 37%
    19:00 +37°C° 0 mm 5 mps 742 mmHg 45%
    20:00 +36°C° 0 mm 5 mps 743 mmHg 52%
    21:00 +35°C° 0.4 mm 4 mps 743 mmHg 55%
    22:00 +35°C° 0.4 mm 3 mps 744 mmHg 57%
    23:00 +34°C° 0.4 mm 2 mps 744 mmHg 59%

    23 Abril, Martes

    Tiempo Temperatura Precipitaciones Viento Presión Humedad
    00:00 +32°C° 1.1 mm 2 mps 744 mmHg 62%
    01:00 +32°C° 1.1 mm 1 mps 743 mmHg 64%
    02:00 +31°C° 1.1 mm 1 mps 743 mmHg 67%
    03:00 +31°C° 0 mm 1 mps 743 mmHg 68%
    04:00 +31°C° 0 mm 1 mps 743 mmHg 70%
    05:00 +31°C° 0 mm 1 mps 743 mmHg 71%
    06:00 +31°C° 0 mm 1 mps 744 mmHg 68%
    07:00 +32°C° 0 mm 1 mps 744 mmHg 66%
    08:00 +32°C° 0 mm 1 mps 745 mmHg 64%
    09:00 +34°C° 0 mm 1 mps 745 mmHg 58%
    10:00 +35°C° 0 mm 1 mps 745 mmHg 52%
    11:00 +37°C° 0 mm 2 mps 744 mmHg 46%
    12:00 +37°C° 0 mm 2 mps 744 mmHg 45%
    13:00 +37°C° 0 mm 2 mps 743 mmHg 43%
    14:00 +38°C° 0 mm 2 mps 742 mmHg 42%
    15:00 +38°C° 0 mm 2 mps 742 mmHg 41%
    16:00 +38°C° 0 mm 2 mps 742 mmHg 41%
    17:00 +38°C° 0 mm 3 mps 742 mmHg 40%
    18:00 +37°C° 0 mm 3 mps 743 mmHg 44%
    19:00 +36°C° 0 mm 4 mps 744 mmHg 48%
    20:00 +35°C° 0 mm 4 mps 744 mmHg 51%
    21:00 +35°C° 0.4 mm 4 mps 745 mmHg 54%
    22:00 +34°C° 0.4 mm 3 mps 745 mmHg 56%
    23:00 +32°C° 0.4 mm 2 mps 745 mmHg 59%

    24 Abril, Miércoles

    Tiempo Temperatura Precipitaciones Viento Presión Humedad
    00:00 +32°C° 0 mm 2 mps 744 mmHg 61%
    01:00 +32°C° 0 mm 1 mps 744 mmHg 63%
    02:00 +31°C° 0 mm 1 mps 743 mmHg 65%
    03:00 +31°C° 0 mm 1 mps 743 mmHg 67%
    04:00 +31°C° 0 mm 1 mps 744 mmHg 69%
    05:00 +30°C° 0 mm 1 mps 744 mmHg 72%
    06:00 +31°C° 0 mm 1 mps 744 mmHg 69%
    07:00 +31°C° 0 mm 1 mps 745 mmHg 67%
    08:00 +32°C° 0 mm 2 mps 746 mmHg 64%
    09:00 +34°C° 0 mm 2 mps 746 mmHg 57%
    10:00 +36°C° 0 mm 2 mps 745 mmHg 49%
    11:00 +37°C° 0 mm 2 mps 745 mmHg 41%
    12:00 +38°C° 0 mm 2 mps 744 mmHg 37%
    13:00 +39°C° 0 mm 3 mps 743 mmHg 32%
    14:00 +40°C° 0 mm 3 mps 742 mmHg 27%
    15:00 +40°C° 0 mm 3 mps 742 mmHg 27%
    16:00 +40°C° 0 mm 3 mps 742 mmHg 27%
    17:00 +40°C° 0 mm 3 mps 742 mmHg 27%
    18:00 +38°C° 0 mm 4 mps 743 mmHg 34%
    19:00 +37°C° 0 mm 4 mps 744 mmHg 40%
    20:00 +35°C° 0 mm 5 mps 744 mmHg 47%
    21:00 +35°C° 0 mm 4 mps 744 mmHg 50%
    22:00 +34°C° 0 mm 3 mps 745 mmHg 52%
    23:00 +34°C° 0 mm 2 mps 745 mmHg 55%

    25 Abril, Jueves

    Tiempo Temperatura Precipitaciones Viento Presión Humedad
    00:00 +32°C° 0 mm 1 mps 744 mmHg 57%
    01:00 +32°C° 0 mm 1 mps 743 mmHg 59%
    02:00 +32°C° 0 mm 1 mps 743 mmHg 62%
    03:00 +31°C° 0 mm 1 mps 743 mmHg 64%
    04:00 +31°C° 0 mm 1 mps 744 mmHg 66%
    05:00 +31°C° 0 mm 1 mps 744 mmHg 68%
    06:00 +31°C° 0 mm 2 mps 744 mmHg 66%
    07:00 +32°C° 0 mm 2 mps 745 mmHg 64%
    08:00 +32°C° 0 mm 2 mps 746 mmHg 62%
    09:00 +35°C° 0 mm 2 mps 746 mmHg 55%
    10:00 +35°C° 0 mm 1 mps 745 mmHg 47%
    11:00 +36°C° 0 mm 1 mps 745 mmHg 40%
    12:00 +37°C° 0 mm 1 mps 744 mmHg 36%
    13:00 +39°C° 0 mm 2 mps 743 mmHg 32%
    14:00 +40°C° 0 mm 2 mps 742 mmHg 27%
    15:00 +40°C° 0 mm 2 mps 742 mmHg 27%
    16:00 +40°C° 0 mm 3 mps 742 mmHg 27%
    17:00 +40°C° 0 mm 3 mps 742 mmHg 27%
    18:00 +40°C° 0 mm 4 mps 743 mmHg 33%
    19:00 +37°C° 0 mm 4 mps 743 mmHg 40%
    20:00 +36°C° 0 mm 5 mps 744 mmHg 46%
    21:00 +35°C° 0 mm 4 mps 744 mmHg 47%
    22:00 +35°C° 0 mm 4 mps 744 mmHg 49%
    23:00 +34°C° 0 mm 3 mps 744 mmHg 50%
    Mostrar más